Location: Newark
(35.9031°N, 139.7175°E)
Time: 20:13:05
(UTC+00:00)

Explorer 7 - Visible Passes

Search period start: 25 May 2020 00:00
Search period end: 04 June 2020 00:00
Orbit: 485 x 679 km, 50.3° (Epoch: 24 May)

Date Brightness Start Highest point End Pass type
(mag) Time Alt. Az. Time Alt. Az. Time Alt. Az.
25 May 8.6 15:43:46 32° N 15:43:46 32° N 15:46:46 10° NE visible
25 May 9.6 17:21:43 10° NW 17:24:06 14° NNW 17:26:24 10° NNE visible
26 May 8.8 15:47:44 27° NNW 15:47:44 27° NNW 15:51:23 10° NNE visible
26 May 9.8 17:27:25 10° NNW 17:29:18 12° N 17:31:09 10° NNE visible
27 May 9.6 14:15:21 15° NE 14:15:21 15° NE 14:16:08 10° NE visible
27 May 9.2 15:51:36 19° NW 15:52:37 21° NNW 15:56:00 10° NNE visible
27 May 9.9 17:32:53 10° NNW 17:34:32 12° N 17:36:09 10° NNE visible
28 May 9.2 14:19:04 23° NNE 14:19:04 23° NNE 14:20:51 10° NE visible
28 May 9.6 15:55:18 12° NW 15:57:44 17° NNW 16:00:37 10° NNE visible
28 May 9.9 17:38:00 10° NNW 17:39:47 12° N 17:41:31 10° NNE visible
29 May 8.9 14:22:31 30° N 14:22:31 30° N 14:25:32 10° NE visible
29 May 9.9 16:00:27 10° NW 16:02:55 14° NNW 16:05:19 10° NNE visible
29 May 9.9 17:42:48 10° NNW 17:45:01 13° N 17:47:09 10° NE visible
30 May 9.4 12:49:16 15° NE 12:49:16 15° NE 12:50:05 10° NE visible
30 May 9.1 14:25:26 24° NW 14:26:19 26° NNW 14:30:10 10° NNE visible
30 May 10.0 16:06:04 10° NNW 16:08:08 13° N 16:10:10 10° NNE visible
30 May 9.8 17:47:27 10° NNW 17:50:13 16° NNE 17:52:51 10° NE visible
31 May9.811:14:37ENE11:14:37ENE11:05:17Svisible
31 May 7.4 12:50:32 68° N 12:50:32 68° N 12:54:53 10° NE visible
31 May 9.6 14:27:53 10° WNW 14:31:24 20° NNW 14:34:47 10° NNE visible
31 May 10.1 16:11:25 10° NNW 16:13:23 12° N 16:15:18 10° NNE visible
31 May 9.6 17:52:03 10° NNW 17:55:20 20° NNE 17:58:29 10° ENE visible
01 Jun 7.9 11:10:17 10° SSW 11:14:34 31° SE 11:18:47 10° ENE visible
01 Jun 8.1 12:50:23 10° WSW 12:55:04 47° NW 12:59:36 10° NE visible
01 Jun 9.9 14:33:32 10° NW 14:36:32 16° NNW 14:39:27 10° NNE visible
01 Jun 10.1 16:16:28 10° NNW 16:18:37 13° N 16:20:44 10° NE visible
01 Jun 9.1 17:56:39 10° NNW 18:00:25 27° NNE 18:03:59 10° E visible
02 Jun 7.3 11:14:30 10° SSW 11:19:15 51° SE 11:23:54 10° ENE visible
02 Jun 8.9 12:55:38 10° W 13:00:01 33° NNW 13:04:15 10° NE visible
02 Jun 10.1 14:39:11 10° NW 14:41:44 14° N 14:44:12 10° NNE visible
02 Jun 10.0 16:21:15 10° NNW 16:23:50 15° NNE 16:26:22 10° NE visible
02 Jun 8.3 18:01:17 10° NW 18:05:24 40° NNE 18:09:17 10° ESE visible
03 Jun 7.1 11:19:06 10° SW 11:24:00 83° SE 11:28:48 10° NE visible
03 Jun 9.4 13:01:05 10° W 13:05:02 24° NNW 13:08:54 10° NNE visible
03 Jun 10.2 14:44:42 10° NNW 14:46:58 13° N 14:49:09 10° NNE visible
03 Jun 9.8 16:25:55 10° NNW 16:29:02 18° NNE 16:32:01 10° ENE visible
03 Jun 7.3 18:05:58 10° NW 18:10:19 64° NE 18:14:22 10° ESE visible
